Location: Arroyo Grande
(40.2671°N, 4.2512°W)
Time: 05:38:59
(UTC+00:00)

Cosmos 1626 Rocket - Pass Details

Date: 03 February 2023
Orbit: 602 x 629 km, 82.5° (Epoch: 26 March)

Event Time Altitude Azimuth Distance (km) Brightness Sun altitude
Rises 19:14:00 0° 171° (S) 2,838 6.9 -18.7°
Reaches altitude 10° 19:16:15 10° 165° (SSE) 1,940 6.0 -19.1°
Enters shadow 19:19:23 38° 128° (SE) 926 4.1 -19.7°
